Location: Palombina Nuova
(43.6167°N, 13.4000°E)
Time: 19:57:00
(UTC+00:00)

Cosmos 2061 Rocket - Pass Details

Date: 17 February 2020
Orbit: 965 x 1014 km, 82.9° (Epoch: 30 March)

Event Time Altitude Azimuth Distance (km) Brightness Sun altitude
Rises 05:01:43 0° 351° (N) 3,713 6.9 -11.7°
Reaches altitude 10° 05:04:15 10° 350° (N) 2,753 6.2 -11.3°
Maximum altitude 05:10:33 82° 265° (W) 991 4.0 -10.1°
Drops below altitude 10° 05:16:46 10° 178° (S) 2,705 6.5 -9.0°
Sets 05:19:14 0° 177° (S) 3,643 7.2 -8.6°
